| time (UTC) | temp C | wind direction | speed KPH | gust KPH | rain 1hr cm | rain 24hr cm | rain mn cm | humidity % | barometer mb |
| 20260504100543 | 3 | 0 | 0.0 | 0.0 | 0.00 | 0.00 | 0.00 | 91 | 1014.6 |
| 20260504100103 | 3 | 0 | 0.0 | 0.0 | 0.00 | 0.00 | 0.00 | 91 | 1014.7 |
| 20260504081600 | 4 | 0 | 0.0 | 0.0 | 0.00 | 0.00 | 0.00 | 86 | 1015.0 |
| 20260504081042 | 4 | 0 | 0.0 | 0.0 | 0.00 | 0.00 | 0.00 | 86 | 1014.9 |
| 20260504080547 | 4 | 0 | 0.0 | 0.0 | 0.00 | 0.00 | 0.00 | 86 | 1014.8 |
| 20260504050546 | 5 | 0 | 0.0 | 0.0 | 0.00 | 0.00 | 0.00 | 79 | 1015.1 |
| 20260504050104 | 5 | 0 | 0.0 | 0.0 | 0.00 | 0.00 | 0.00 | 79 | 1014.9 |
| 20260504045546 | 5 | 0 | 0.0 | 0.0 | 0.00 | 0.00 | 0.00 | 79 | 1015.0 |
| 20260504045045 | 5 | 0 | 0.0 | 0.0 | 0.00 | 0.00 | 0.00 | 78 | 1015.0 |
| 20260504044601 | 5 | 0 | 0.0 | 0.0 | 0.00 | 0.00 | 0.00 | 79 | 1015.0 |
| 20260504044047 | 4 | 0 | 0.0 | 0.0 | 0.00 | 0.00 | 0.00 | 79 | 1015.0 |
| 20260504043547 | 4 | 0 | 0.0 | 0.0 | 0.00 | 0.00 | 0.00 | 80 | 1014.9 |
| 20260504043053 | 4 | 0 | 0.0 | 0.0 | 0.00 | 0.00 | 0.00 | 80 | 1015.0 |
| 20260504042546 | 4 | 0 | 0.0 | 0.0 | 0.00 | 0.00 | 0.00 | 82 | 1014.9 |
| 20260504042044 | 4 | 0 | 0.0 | 4.8 | 0.00 | 0.00 | 0.00 | 82 | 1014.9 |
| 20260504041550 | 3 | 0 | 0.0 | 4.8 | 0.00 | 0.00 | 0.00 | 82 | 1014.9 |
| 20260504041049 | 4 | 0 | 0.0 | 4.8 | 0.00 | 0.00 | 0.00 | 81 | 1014.7 |
| 20260504040544 | 4 | 0 | 0.0 | 0.0 | 0.00 | 0.00 | 0.00 | 81 | 1014.7 |
| 20260504035548 | 4 | 0 | 0.0 | 0.0 | 0.00 | 0.00 | 0.00 | 78 | 1014.6 |
| 20260504035044 | 5 | 0 | 0.0 | 0.0 | 0.00 | 0.00 | 0.00 | 78 | 1014.6 |
| 20260504034550 | 5 | 0 | 0.0 | 0.0 | 0.00 | 0.00 | 0.00 | 78 | 1014.5 |
| 20260504034050 | 5 | 0 | 0.0 | 0.0 | 0.00 | 0.00 | 0.00 | 78 | 1014.5 |
| 20260504033543 | 5 | 0 | 0.0 | 0.0 | 0.00 | 0.00 | 0.00 | 77 | 1014.5 |
| 20260504033051 | 5 | 0 | 0.0 | 0.0 | 0.00 | 0.00 | 0.00 | 77 | 1014.5 |
| 20260504032547 | 5 | 0 | 0.0 | 0.0 | 0.00 | 0.00 | 0.00 | 77 | 1014.4 |
| 20260504032044 | 5 | 0 | 0.0 | 0.0 | 0.00 | 0.00 | 0.00 | 79 | 1014.5 |
| 20260504031550 | 5 | 0 | 0.0 | 0.0 | 0.00 | 0.00 | 0.00 | 79 | 1014.4 |
| 20260504031046 | 5 | 0 | 0.0 | 0.0 | 0.00 | 0.00 | 0.00 | 78 | 1014.4 |
| 20260504030545 | 5 | 0 | 0.0 | 0.0 | 0.00 | 0.00 | 0.00 | 77 | 1014.3 |
| 20260504030053 | 5 | 0 | 0.0 | 0.0 | 0.00 | 0.00 | 0.00 | 78 | 1014.2 |
| 20260504025544 | 5 | 0 | 0.0 | 0.0 | 0.00 | 0.00 | 0.00 | 78 | 1014.2 |
| 20260504025044 | 5 | 0 | 0.0 | 0.0 | 0.00 | 0.00 | 0.00 | 79 | 1014.2 |
| 20260504024604 | 5 | 0 | 0.0 | 0.0 | 0.00 | 0.00 | 0.00 | 79 | 1014.2 |
| 20260504024048 | 5 | 0 | 0.0 | 0.0 | 0.00 | 0.00 | 0.00 | 78 | 1014.3 |
| 20260504023543 | 5 | 0 | 0.0 | 0.0 | 0.00 | 0.00 | 0.00 | 77 | 1014.3 |
| 20260504023054 | 5 | 0 | 0.0 | 0.0 | 0.00 | 0.00 | 0.00 | 77 | 1014.3 |
| 20260504022543 | 5 | 0 | 0.0 | 1.6 | 0.00 | 0.00 | 0.00 | 78 | 1014.3 |
| 20260504022044 | 5 | 0 | 0.0 | 1.6 | 0.00 | 0.00 | 0.00 | 78 | 1014.3 |
| 20260504021552 | 5 | 0 | 0.0 | 1.6 | 0.00 | 0.00 | 0.00 | 77 | 1014.3 |
| 20260504021043 | 6 | 0 | 0.0 | 1.6 | 0.00 | 0.00 | 0.00 | 77 | 1014.2 |
| 20260504020548 | 5 | 0 | 0.0 | 0.0 | 0.00 | 0.00 | 0.00 | 75 | 1014.2 |
| 20260504020051 | 5 | 0 | 0.0 | 1.6 | 0.00 | 0.00 | 0.00 | 75 | 1014.3 |
| 20260504015545 | 6 | 0 | 0.0 | 1.6 | 0.00 | 0.00 | 0.00 | 75 | 1014.2 |
| 20260504015047 | 6 | 0 | 0.0 | 0.0 | 0.00 | 0.00 | 0.00 | 74 | 1014.2 |
| 20260504014603 | 6 | 0 | 0.0 | 0.0 | 0.00 | 0.00 | 0.00 | 74 | 1014.3 |
| 20260504014045 | 6 | 0 | 0.0 | 0.0 | 0.00 | 0.00 | 0.00 | 74 | 1014.3 |
| 20260504013543 | 6 | 0 | 0.0 | 0.0 | 0.00 | 0.00 | 0.00 | 75 | 1014.1 |
| 20260504013051 | 6 | 0 | 0.0 | 0.0 | 0.00 | 0.00 | 0.00 | 73 | 1014.1 |
| 20260504012546 | 6 | 0 | 0.0 | 0.0 | 0.00 | 0.00 | 0.00 | 71 | 1014.1 |
| 20260504012043 | 6 | 0 | 0.0 | 0.0 | 0.00 | 0.00 | 0.00 | 69 | 1014.0 |
| 20260504011551 | 7 | 0 | 0.0 | 0.0 | 0.00 | 0.00 | 0.00 | 68 | 1014.0 |
| 20260504011042 | 7 | 0 | 0.0 | 0.0 | 0.00 | 0.00 | 0.00 | 67 | 1013.9 |
| 20260504010541 | 7 | 0 | 0.0 | 0.0 | 0.00 | 0.00 | 0.00 | 67 | 1013.8 |
| 20260504010055 | 7 | 0 | 0.0 | 1.6 | 0.00 | 0.00 | 0.00 | 66 | 1013.8 |
| 20260504005542 | 7 | 0 | 0.0 | 1.6 | 0.00 | 0.00 | 0.00 | 68 | 1013.8 |
| 20260504005044 | 8 | 0 | 0.0 | 0.0 | 0.00 | 0.00 | 0.00 | 67 | 1013.8 |
| 20260504004554 | 8 | 0 | 0.0 | 0.0 | 0.00 | 0.00 | 0.00 | 64 | 1013.8 |
| 20260504004044 | 8 | 0 | 0.0 | 0.0 | 0.00 | 0.00 | 0.00 | 64 | 1013.7 |
| 20260504003542 | 8 | 0 | 0.0 | 0.0 | 0.00 | 0.00 | 0.00 | 61 | 1013.5 |
| 20260504003057 | 8 | 0 | 0.0 | 0.0 | 0.00 | 0.00 | 0.00 | 61 | 1013.5 |
| 20260504002543 | 9 | 0 | 0.0 | 0.0 | 0.00 | 0.00 | 0.00 | 59 | 1013.4 |
| 20260504002041 | 10 | 0 | 0.0 | 0.0 | 0.00 | 0.00 | 0.00 | 58 | 1013.4 |
| 20260504001551 | 10 | 0 | 0.0 | 0.0 | 0.00 | 0.00 | 0.00 | 55 | 1013.2 |
| 20260504001043 | 10 | 0 | 0.0 | 0.0 | 0.00 | 0.00 | 0.00 | 51 | 1013.2 |
| 20260504000543 | 11 | 0 | 0.0 | 0.0 | 0.00 | 0.00 | 0.00 | 49 | 1013.0 |
| 20260504000134 | 11 | 0 | 0.0 | 1.6 | 0.00 | 0.00 | 0.00 | 48 | 1012.9 |
| 20260503235543 | 11 | 0 | 0.0 | 3.2 | 0.00 | 0.00 | 0.00 | 46 | 1012.8 |
| 20260503235043 | 11 | 0 | 0.0 | 3.2 | 0.00 | 0.00 | 0.00 | 45 | 1012.7 |
| 20260503234558 | 12 | 291 | 0.0 | 8.0 | 0.00 | 0.00 | 0.00 | 44 | 1012.7 |
| 20260503234047 | 12 | 0 | 0.0 | 8.0 | 0.00 | 0.00 | 0.00 | 45 | 1012.8 |
| 20260503233541 | 12 | 0 | 1.6 | 8.0 | 0.00 | 0.00 | 0.00 | 44 | 1012.8 |
| 20260503233053 | 13 | 0 | 1.6 | 6.4 | 0.00 | 0.00 | 0.00 | 41 | 1012.8 |
| 20260503232543 | 13 | 0 | 0.0 | 8.0 | 0.00 | 0.00 | 0.00 | 41 | 1012.8 |
| 20260503232043 | 13 | 0 | 0.0 | 12.9 | 0.00 | 0.00 | 0.00 | 37 | 1012.9 |
| 20260503231552 | 14 | 0 | 3.2 | 12.9 | 0.00 | 0.00 | 0.00 | 37 | 1012.9 |
| 20260503231044 | 14 | 257 | 4.8 | 16.1 | 0.00 | 0.00 | 0.00 | 36 | 1012.9 |
| 20260503230544 | 15 | 274 | 4.8 | 16.1 | 0.00 | 0.00 | 0.00 | 35 | 1012.9 |
| 20260503230051 | 15 | 301 | 4.8 | 16.1 | 0.00 | 0.00 | 0.00 | 36 | 1012.8 |
| 20260503225547 | 15 | 291 | 8.0 | 16.1 | 0.00 | 0.00 | 0.00 | 34 | 1012.8 |
| 20260503225043 | 15 | 0 | 4.8 | 16.1 | 0.00 | 0.00 | 0.00 | 36 | 1012.8 |
| 20260503224550 | 15 | 332 | 3.2 | 16.1 | 0.00 | 0.00 | 0.00 | 35 | 1012.7 |
| 20260503224041 | 15 | 287 | 8.0 | 16.1 | 0.00 | 0.00 | 0.00 | 36 | 1012.7 |
| 20260503223542 | 15 | 309 | 6.4 | 20.9 | 0.00 | 0.00 | 0.00 | 34 | 1012.7 |
| 20260503223050 | 15 | 287 | 8.0 | 20.9 | 0.00 | 0.00 | 0.00 | 36 | 1012.8 |
| 20260503222543 | 16 | 342 | 9.7 | 20.9 | 0.00 | 0.00 | 0.00 | 33 | 1012.8 |
| 20260503222048 | 16 | 255 | 4.8 | 19.3 | 0.00 | 0.00 | 0.00 | 33 | 1012.9 |
| 20260503221556 | 16 | 291 | 8.0 | 25.7 | 0.00 | 0.00 | 0.00 | 32 | 1012.9 |
| 20260503221044 | 16 | 310 | 9.7 | 25.7 | 0.00 | 0.00 | 0.00 | 33 | 1013.0 |
| 20260503220544 | 16 | 272 | 11.3 | 30.6 | 0.00 | 0.00 | 0.00 | 32 | 1012.9 |
| 20260503220055 | 16 | 296 | 16.1 | 33.8 | 0.00 | 0.00 | 0.00 | 31 | 1013.0 |
| 20260503215548 | 16 | 318 | 11.3 | 33.8 | 0.00 | 0.00 | 0.00 | 34 | 1013.0 |
| 20260503215047 | 16 | 320 | 14.5 | 33.8 | 0.00 | 0.00 | 0.00 | 33 | 1012.9 |
| 20260503214554 | 16 | 268 | 16.1 | 33.8 | 0.00 | 0.00 | 0.00 | 37 | 1013.0 |
| 20260503214048 | 16 | 3 | 12.9 | 27.4 | 0.00 | 0.00 | 0.00 | 32 | 1012.8 |
| 20260503213547 | 16 | 277 | 12.9 | 27.4 | 0.00 | 0.00 | 0.00 | 34 | 1012.9 |
| 20260503213057 | 16 | 301 | 14.5 | 25.7 | 0.00 | 0.00 | 0.00 | 35 | 1012.9 |
| 20260503212548 | 16 | 282 | 12.9 | 24.1 | 0.00 | 0.00 | 0.00 | 36 | 1012.9 |
| 20260503212048 | 16 | 305 | 9.7 | 32.2 | 0.00 | 0.00 | 0.00 | 35 | 1012.8 |
| 20260503211611 | 16 | 247 | 6.4 | 32.2 | 0.00 | 0.00 | 0.00 | 37 | 1012.8 |
| 20260503211045 | 16 | 313 | 9.7 | 27.4 | 0.00 | 0.00 | 0.00 | 39 | 1012.8 |
| 20260503210549 | 16 | 296 | 9.7 | 27.4 | 0.00 | 0.00 | 0.00 | 34 | 1012.9 |
| 20260503210053 | 16 | 301 | 9.7 | 27.4 | 0.00 | 0.00 | 0.00 | 32 | 1012.8 |
| 20260503205549 | 16 | 301 | 11.3 | 25.7 | 0.00 | 0.00 | 0.00 | 35 | 1012.9 |
| 20260503205047 | 16 | 280 | 9.7 | 32.2 | 0.00 | 0.00 | 0.00 | 43 | 1012.9 |
| 20260503204557 | 16 | 267 | 17.7 | 32.2 | 0.00 | 0.00 | 0.00 | 37 | 1012.9 |
| 20260503204048 | 16 | 306 | 12.9 | 25.7 | 0.00 | 0.00 | 0.00 | 38 | 1013.0 |
| 20260503203546 | 16 | 261 | 14.5 | 22.5 | 0.00 | 0.00 | 0.00 | 38 | 1012.9 |
| 20260503203105 | 15 | 263 | 11.3 | 24.1 | 0.00 | 0.00 | 0.00 | 38 | 1013.0 |
| 20260503202548 | 15 | 254 | 11.3 | 25.7 | 0.00 | 0.00 | 0.00 | 39 | 1013.0 |
| 20260503202050 | 15 | 253 | 12.9 | 25.7 | 0.00 | 0.00 | 0.00 | 38 | 1013.0 |
| 20260503201555 | 16 | 319 | 8.0 | 27.4 | 0.00 | 0.00 | 0.00 | 38 | 1013.1 |
| 20260503201046 | 16 | 307 | 12.9 | 27.4 | 0.00 | 0.00 | 0.00 | 35 | 1013.1 |
| 20260503200542 | 16 | 319 | 9.7 | 30.6 | 0.00 | 0.00 | 0.00 | 35 | 1013.1 |
| 20260503200055 | 15 | 264 | 9.7 | 30.6 | 0.00 | 0.00 | 0.00 | 35 | 1013.3 |
| 20260503195547 | 15 | 269 | 17.7 | 30.6 | 0.00 | 0.00 | 0.00 | 37 | 1013.2 |
| 20260503195047 | 16 | 332 | 16.1 | 30.6 | 0.00 | 0.00 | 0.00 | 35 | 1013.2 |
| 20260503194557 | 16 | 333 | 14.5 | 35.4 | 0.00 | 0.00 | 0.00 | 34 | 1013.3 |
| 20260503194048 | 15 | 280 | 12.9 | 35.4 | 0.00 | 0.00 | 0.00 | 38 | 1013.4 |
| 20260503193547 | 15 | 301 | 19.3 | 35.4 | 0.00 | 0.00 | 0.00 | 37 | 1013.2 |
| 20260503193057 | 16 | 291 | 12.9 | 32.2 | 0.00 | 0.00 | 0.00 | 40 | 1013.3 |
| 20260503192545 | 15 | 291 | 17.7 | 32.2 | 0.00 | 0.00 | 0.00 | 34 | 1013.3 |
| 20260503192047 | 15 | 345 | 9.7 | 22.5 | 0.00 | 0.00 | 0.00 | 40 | 1013.4 |
| 20260503191604 | 16 | 353 | 11.3 | 20.9 | 0.00 | 0.00 | 0.00 | 37 | 1013.5 |
| 20260503191050 | 16 | 296 | 3.2 | 24.1 | 0.00 | 0.00 | 0.00 | 44 | 1013.5 |
| 20260503190545 | 15 | 301 | 8.0 | 30.6 | 0.00 | 0.00 | 0.00 | 42 | 1013.5 |
| 20260503190110 | 14 | 326 | 12.9 | 35.4 | 0.00 | 0.00 | 0.00 | 38 | 1013.6 |
| 20260503185542 | 15 | 259 | 16.1 | 35.4 | 0.00 | 0.00 | 0.00 | 40 | 1013.6 |
| 20260503185045 | 15 | 334 | 12.9 | 35.4 | 0.00 | 0.00 | 0.00 | 42 | 1013.6 |
| 20260503184555 | 15 | 24 | 12.9 | 35.4 | 0.00 | 0.00 | 0.00 | 41 | 1013.7 |
| 20260503184046 | 15 | 326 | 9.7 | 25.7 | 0.00 | 0.00 | 0.00 | 37 | 1013.7 |
| 20260503183546 | 15 | 332 | 12.9 | 25.7 | 0.00 | 0.00 | 0.00 | 35 | 1013.8 |
| 20260503183101 | 15 | 291 | 9.7 | 25.7 | 0.00 | 0.00 | 0.00 | 36 | 1013.7 |
| 20260503182543 | 15 | 311 | 6.4 | 25.7 | 0.00 | 0.00 | 0.00 | 38 | 1013.9 |
| 20260503182047 | 15 | 338 | 8.0 | 25.7 | 0.00 | 0.00 | 0.00 | 39 | 1013.9 |
| 20260503181604 | 15 | 266 | 14.5 | 32.2 | 0.00 | 0.00 | 0.00 | 43 | 1014.0 |
| 20260503181042 | 15 | 313 | 16.1 | 32.2 | 0.00 | 0.00 | 0.00 | 39 | 1013.9 |
| 20260503180543 | 14 | 301 | 16.1 | 29.0 | 0.00 | 0.00 | 0.00 | 37 | 1013.9 |
| 20260503180054 | 14 | 291 | 11.3 | 35.4 | 0.00 | 0.00 | 0.00 | 44 | 1014.2 |
| 20260503175543 | 14 | 301 | 20.9 | 35.4 | 0.00 | 0.00 | 0.00 | 41 | 1014.3 |
| 20260503175042 | 15 | 334 | 9.7 | 29.0 | 0.00 | 0.00 | 0.00 | 40 | 1014.3 |
| 20260503174554 | 13 | 306 | 6.4 | 35.4 | 0.00 | 0.00 | 0.00 | 41 | 1014.3 |
| 20260503174042 | 14 | 309 | 17.7 | 35.4 | 0.00 | 0.00 | 0.00 | 37 | 1014.3 |
| 20260503173542 | 13 | 236 | 6.4 | 35.4 | 0.00 | 0.00 | 0.00 | 42 | 1014.3 |
| 20260503173057 | 14 | 285 | 11.3 | 33.8 | 0.00 | 0.00 | 0.00 | 44 | 1014.4 |
| 20260503172542 | 15 | 326 | 12.9 | 32.2 | 0.00 | 0.00 | 0.00 | 50 | 1014.4 |
| 20260503172042 | 14 | 307 | 16.1 | 32.2 | 0.00 | 0.00 | 0.00 | 39 | 1014.5 |
| 20260503171554 | 13 | 335 | 16.1 | 30.6 | 0.00 | 0.00 | 0.00 | 41 | 1014.4 |
| 20260503171044 | 13 | 319 | 14.5 | 32.2 | 0.00 | 0.00 | 0.00 | 40 | 1014.5 |
| 20260503170544 | 13 | 296 | 14.5 | 32.2 | 0.00 | 0.00 | 0.00 | 39 | 1014.6 |
| 20260503150543 | 11 | 274 | 12.9 | 27.4 | 0.00 | 0.00 | 0.00 | 49 | 1015.1 |
| 20260503131047 | 9 | 2 | 9.7 | 27.4 | 0.00 | 0.00 | 0.00 | 55 | 1014.9 |
| 20260503130545 | 9 | 341 | 11.3 | 27.4 | 0.00 | 0.00 | 0.00 | 55 | 1014.8 |
| 20260503110542 | 7 | 305 | 4.8 | 12.9 | 0.00 | 0.00 | 0.00 | 69 | 1013.9 |